FENGYUN 1C DEB, 40690

Orbit data source: Space-Track

FENGYUN 1C DEB, 40690 is space debris in SSO originally from a launch on Mon, 10 May 1999 UTC launched from the Taiyaun Space Center, China (TSC). Fengyun 1C debris stems from the Chinese weather satellite Fengyun-1C, which was intentionally destroyed by a Chinese anti-satellite missile in 2007. This event dramatically increased the amount of space debris, with thousands of trackable fragments posing hazards to satellites and human spaceflight. The Fengyun 1C debris cloud has become a focal point in discussions about space sustainability and the need for international regulations to prevent the creation of new debris.

Loading next visibility...
Identifier
40690, 1999-025EWW
Orbit
SSO
Country
Flag of CNCN / PRC
Related business
Manufacturer
Unknown
Mission
Spacecraft
Bus & Motor
Unknown
Mass
Unknown
Launch date (UTC)
1999-05-10 (27 years ago)
Launch vehicle
Unknown
Launch site
Taiyaun Space Center, China (TSC)
Object type
Payload
Rocket body
Debris
Shape & HBR
Unknown shape, 0.1 m
Radar Cross Section
Small (<0.1 m²)

Expand to show TLE details & history
Last TLE update: 1 month ago

TLE from 1 month ago
0 FENGYUN 1C DEB
1 40690U 99025EWW 26217.40709913  .00000511  00000-0  39377-3 0  9994
2 40690  99.3961 262.3212 0091980 227.9159 131.4154 13.95941010646635
Epoch: 2026-08-05T09:46Z
TLE epoch observation values (Epoch: 2026-08-05T09:46:13.364Z)
Latitude
0.00002°
Longitude
161.80357°
Altitude
955.428 km
Speed
7.351 km/s
True Right ascension
17h 29m 17s
True Declination
0° 00' 00"
Sunlit
Object was in full shadow at epoch
Visualization orbit readout
Latitude
Unknown
Longitude
Unknown
Altitude
Unknown
Speed
Unknown
Apparent Right ascension
Unknown
Apparent Declination
Unknown
Sunlit
N/A
Visualization observer readout
Local Sidereal Time
00:52:45
Azimuth
Unknown
Elevation
Unknown
Doppler factor
Unknown
Orbital elements
Apogee altitude
972.1 km
Perigee altitude
838.118 km
Semi-major axis
7,283.246 km
Eccentricity
0.0092
Inclination
99.3961°
RAAN
262.3212°
Arg. of periapsis
227.9159°
True anomaly
132.19985°
Mean anomaly
131.4154°
Eccentric anomaly
131.80822°
Mean motion
3.49185 °/min
Orbital period
103.1 mins
BSTAR
0.00039377
Loading maneuver chart data...
Computing Atmospheric mass density...
Loading historical data...
Loading historical data...
Loading historical data...
Loading historical data...
Loading historical data...
Loading historical data...
Loading historical data...

Documentation

Showing up to 5 results
|